sat.trackr.live / text

‹ back to catalog

SHIYAN-27 OBJECT C

NORAD 63601 · 2025-078C

PAYLOAD ACTIVE UNKNOWN

§ Identity

Operator
Country
PRC
Launch date
2025-04-18
Launch site
TAISC
Launch vehicle
Mass (kg)
RCS (m²)

External: N2YO · Heavens-Above · Gunter

§ Orbital elements

Epoch: 2026-09-21T22:47:22.562016Z

Period
106.10 min
Inclination
99.6950°
Eccentricity
0.0000840
Mean motion
13.57247164 rev/d
Perigee alt
1,045.1 km
Apogee alt
1,046.3 km
Semi-major
7,423.9 km
B*
6.7115e-5
RAAN
270.8110°
Arg perigee
86.5012°
Mean anomaly
273.6223°
Rev number
7,066

§ Raw data

SHIYAN-27 OBJECT C1 63601U 25078C   26264.94956669  .00000004  00000+0  67115-4 0  99992 63601  99.6950 270.8110 0000840  86.5012 273.6223 13.57247164 70663

JSON: /api/v1/satellites/63601 · /tle

For live sub-satellite position, see the globe view (requires WebGL).

§ Visibility from observer

Set your observer location to see the next 7 days of passes ≥ 10°. The values pass through the URL so the page stays shareable.

No JS? Fill the form by hand. The geolocation button needs JavaScript.